Location: Haieshausen
(51.8387°N, 9.9720°E)
Time: 04:23:06
(UTC+00:00)

Cosmos 2100 Rocket - Pass Details

Date: 14 July 2020
Orbit: 955 x 1002 km, 82.9° (Epoch: 10 August)

Event Time Altitude Azimuth Distance (km) Brightness Sun altitude
Exits shadow 00:45:06 19° 184° (S) 2,133 5.2 -14.5°
Maximum altitude 00:49:44 83° 98° (E) 991 4.0 -14.3°
Drops below altitude 10° 00:55:59 10° 11° (NNE) 2,723 7.7 -13.9°
Sets 00:58:29 0° 11° (NNE) 3,668 8.8 -13.8°
